sat.trackr.live / text

‹ back to catalog

STARLINK-32489

NORAD 61893 · 2024-204V

PAYLOAD ACTIVE UNKNOWN

§ Identity

Operator
Country
US
Launch date
2024-11-09
Launch site
AFWTR
Launch vehicle
Mass (kg)
RCS (m²)

Purposes: comms

External: N2YO · Heavens-Above · Gunter

§ Orbital elements

Epoch: 2026-05-25T02:49:37.939008Z

Period
93.85 min
Inclination
53.1595°
Eccentricity
0.0000977
Mean motion
15.34401632 rev/d
Perigee alt
462.0 km
Apogee alt
463.4 km
Semi-major
6,840.8 km
B*
-1.0554e-5
RAAN
131.0459°
Arg perigee
105.2807°
Mean anomaly
254.8304°
Rev number
8,680

§ Raw data

STARLINK-324891 61893U 24204V   26145.11780022 -.00000733  00000+0 -10554-4 0  99912 61893  53.1595 131.0459 0000977 105.2807 254.8304 15.34401632 86803

JSON: /api/v1/satellites/61893 · /tle

For live sub-satellite position, see the globe view (requires WebGL).

§ Visibility from observer

Set your observer location to see the next 7 days of passes ≥ 10°. The values pass through the URL so the page stays shareable.

No JS? Fill the form by hand. The geolocation button needs JavaScript.